Theta_e
291 287 286 286 289 290 289 290 291 290 287 285 285 285 284 284 285 286 286 287 287 288 287 289 287 286 288 287 288 289 289 288 288 287 287 287 287 287 287 287 287 287 287 289 289 289 289 289 290 291 291 291 292 292 292 292 293 293 294 295 294 296 298 299 300 300 301 301 299 297 296 295 296 295 295 294 294 294 294 294 295 295 295 297 298 299
292 287 286 289 290 290 289 288 288 287 287 287 287 285 285 284 285 287 289 288 286 289 285 284 286 288 288 286 287 287 287 286 286 286 286 286 286 286 286 286 286 287 288 288 288 288 288 289 289 290 290 290 289 290 291 291 292 292 293 293 294 295 296 297 297 298 297 298 297 295 294 294 294 293 293 293 293 293 293 293 293 293 294 294 295 296
286 286 289 291 289 286 286 286 286 287 287 285 285 284 283 284 284 286 287 286 287 288 286 284 286 289 287 286 286 286 285 286 286 287 286 286 285 285 286 286 286 286 286 287 287 287 287 288 288 289 289 289 289 290 290 291 291 291 292 292 293 294 295 295 297 297 296 296 297 296 295 294 293 294 293 293 293 292 291 291 292 292 292 293 293 294
287 286 290 292 288 289 286 284 285 285 285 285 284 283 284 284 286 284 286 286 287 286 286 284 286 289 284 285 286 286 286 285 286 286 286 286 285 285 285 285 285 285 285 285 285 286 286 287 287 288 288 288 289 289 289 290 290 291 291 291 292 293 293 294 295 295 295 295 295 295 294 294 294 293 293 292 292 291 291 289 290 291 291 291 291 292
291 290 289 289 288 289 289 284 285 285 285 283 285 284 284 284 285 287 286 285 284 286 285 286 285 286 284 285 284 285 286 285 285 285 285 286 286 286 286 286 285 284 284 285 285 285 285 286 286 286 287 288 287 288 288 288 289 290 290 291 291 292 292 293 293 294 295 295 294 294 294 294 293 292 291 290 289 289 289 288 288 288 290 290 290 291
289 291 288 287 286 286 288 285 285 286 283 282 283 287 287 286 287 284 285 286 284 283 284 286 282 280 280 281 283 285 284 284 285 284 284 285 285 285 285 284 285 285 285 284 284 284 285 285 286 286 286 286 287 287 287 287 288 289 289 290 291 291 292 292 292 293 294 293 294 293 293 290 288 287 287 286 286 286 286 286 287 287 288 288 288 289
290 289 291 291 287 285 286 286 284 288 284 284 286 286 288 287 285 285 284 286 280 280 285 283 282 277 281 283 284 283 282 283 284 283 284 284 285 284 284 284 284 284 284 285 285 285 285 285 285 285 285 286 286 286 287 287 287 288 288 289 289 290 290 291 291 293 293 291 291 290 289 289 287 286 286 287 287 286 286 287 286 286 287 287 287 287
288 288 287 287 287 286 284 284 284 288 285 283 285 284 285 285 285 284 284 285 281 282 284 283 282 278 279 285 283 283 282 282 282 284 284 284 284 284 284 284 284 284 284 284 284 284 284 284 284 284 285 285 285 286 286 287 287 287 287 287 287 288 288 289 290 290 291 289 289 288 288 287 287 286 285 286 286 286 286 285 285 286 286 286 287 287
288 286 286 286 286 285 286 285 286 288 287 284 285 283 284 285 284 283 285 283 282 283 282 280 284 282 278 282 281 283 283 282 283 283 283 284 284 284 284 284 284 284 284 283 284 284 284 284 284 284 285 285 285 286 286 286 286 287 287 287 287 287 287 287 288 288 289 289 288 287 287 286 286 286 286 286 286 285 285 285 285 285 285 286 286 286
288 289 287 289 286 285 285 284 286 289 288 286 283 283 282 282 282 283 281 283 281 280 276 280 283 279 279 281 282 283 282 282 282 283 283 284 284 284 284 284 284 284 284 284 283 283 284 284 284 284 284 285 285 285 286 286 286 286 286 286 286 286 286 286 286 287 287 287 287 286 286 285 285 285 284 285 284 284 285 284 284 285 285 285 285 286
289 290 290 288 287 287 284 284 285 286 286 284 284 285 283 281 280 279 279 278 277 274 278 281 281 283 278 282 284 282 284 283 284 283 283 284 284 284 284 284 284 284 283 283 284 284 283 283 283 283 284 284 285 285 285 286 285 286 286 286 285 285 286 286 286 286 285 286 285 285 285 284 284 284 284 284 284 284 284 284 284 284 285 285 285 285
288 288 288 287 287 285 285 285 284 283 283 285 287 282 285 283 279 276 270 275 273 271 274 278 279 281 277 279 281 282 282 282 285 283 283 284 284 284 284 283 283 283 283 283 283 283 283 284 283 283 284 284 284 284 285 285 285 285 285 285 285 285 285 285 285 285 285 285 285 285 285 284 284 284 284 284 283 284 284 284 284 284 285 285 285 285
286 288 286 288 289 289 285 285 284 284 286 284 283 285 278 274 273 273 270 274 273 273 278 279 279 280 281 282 285 283 281 282 283 285 285 285 284 284 284 284 283 283 282 282 283 283 283 283 283 283 283 284 284 283 284 284 284 284 284 284 284 284 285 285 285 285 285 285 284 285 284 284 284 284 284 284 284 284 284 284 284 284 283 284 284 284
283 283 286 288 288 288 289 285 282 283 284 283 285 280 275 272 268 265 267 264 269 274 277 279 280 278 280 283 282 283 282 282 283 283 285 286 285 284 284 283 283 282 282 282 282 282 283 283 283 282 282 283 283 283 283 284 284 284 284 284 284 283 284 284 285 285 284 284 284 285 285 285 285 284 284 284 284 284 284 285 284 284 284 284 283 283
277 282 285 287 286 287 289 289 287 282 283 284 282 284 282 272 265 269 264 273 275 274 274 275 275 272 278 282 280 281 282 282 282 282 283 284 284 284 283 283 282 282 282 282 282 282 283 283 283 283 283 283 283 283 283 283 283 283 283 283 283 283 283 283 284 284 284 284 284 284 285 285 285 285 285 285 285 285 284 284 284 284 284 284 284 284
282 281 285 285 285 285 288 285 284 284 285 282 281 283 280 281 279 278 270 268 267 271 272 273 276 278 282 281 281 280 280 281 282 281 283 284 283 282 282 282 282 282 282 282 282 282 282 283 283 283 283 283 283 283 283 283 283 283 283 282 283 283 283 283 283 283 284 284 284 284 284 285 285 285 285 285 285 285 285 284 284 284 284 284 284 284
281 282 284 284 285 285 285 284 286 286 282 283 283 279 281 283 280 272 271 270 270 270 275 270 277 280 282 282 280 280 281 281 281 281 282 283 282 282 282 282 282 282 282 282 282 282 282 282 283 283 283 283 283 283 283 283 283 283 283 282 282 282 283 283 283 283 283 283 283 284 284 284 284 284 284 284 283 284 284 284 284 283 283 283 283 283
281 279 284 285 286 286 284 284 284 284 285 284 278 282 283 284 282 279 275 270 265 270 274 273 277 279 280 278 280 281 280 280 280 280 282 282 281 281 283 283 283 283 283 282 282 282 282 283 283 283 283 283 283 283 283 283 283 283 283 283 283 283 283 283 283 283 283 283 283 283 283 283 283 283 283 283 283 283 283 283 282 282 283 283 283 284
284 282 282 282 284 286 283 286 287 286 285 283 282 284 286 277 277 278 272 272 269 268 270 273 276 277 280 282 280 282 281 281 280 280 280 281 281 282 283 283 283 283 282 281 282 282 282 282 283 283 283 283 283 283 282 283 283 283 283 282 283 283 283 284 284 284 284 284 284 284 284 284 284 284 283 283 283 283 283 283 283 282 282 282 283 282
285 280 280 283 284 285 284 284 281 283 286 285 286 284 283 281 273 274 277 271 272 269 267 272 274 277 280 282 283 285 284 283 281 280 281 283 283 284 284 284 283 282 282 282 282 282 282 283 283 283 283 283 283 283 283 283 283 283 284 284 284 284 284 284 285 285 285 285 285 285 284 283 283 283 283 283 283 283 282 282 282 282 282 282 282 282
283 285 275 281 282 283 283 283 283 283 281 282 282 279 282 277 280 278 277 275 275 266 268 269 276 275 281 280 283 285 284 284 283 282 283 284 284 284 285 284 284 283 283 283 282 282 282 282 282 282 283 283 282 283 283 283 282 283 283 283 284 284 283 284 284 284 284 284 283 282 282 282 282 282 282 281 282 281 281 281 281 280 280 281 280 280
281 281 280 277 281 280 281 282 283 284 285 284 285 282 285 279 276 275 277 276 272 275 272 270 276 279 281 281 282 282 283 284 284 284 284 284 285 284 284 283 283 283 284 283 282 282 282 283 282 282 282 282 282 283 282 283 282 282 282 283 283 283 283 283 282 282 283 283 282 281 281 281 281 280 280 280 280 280 280 280 280 280 280 280 280 280
286 283 278 275 280 283 283 283 281 283 283 282 285 282 284 282 282 276 273 273 272 277 272 272 270 281 283 281 281 282 282 284 284 283 284 284 284 284 283 283 284 284 284 282 282 282 283 283 283 282 283 282 282 282 282 283 282 283 283 283 283 283 282 282 281 281 282 281 281 280 279 279 279 279 279 279 279 279 279 279 279 279 279 279 279 279
291 282 279 281 279 280 283 282 282 282 283 285 283 280 283 284 284 283 280 277 274 271 273 270 274 279 282 282 280 281 281 281 283 283 283 283 283 283 283 283 283 284 282 282 282 282 283 282 282 281 282 282 281 281 282 283 283 283 282 282 283 282 281 280 280 280 281 280 279 279 279 279 279 279 278 278 278 278 278 278 278 278 277 277 277 277
285 284 284 275 273 276 277 282 282 283 283 283 282 281 280 281 280 279 276 273 275 276 278 274 275 279 282 282 282 278 281 281 282 282 282 283 282 284 284 284 283 282 283 282 282 282 282 282 281 282 282 282 282 282 283 283 283 282 281 281 281 281 280 279 280 280 280 279 279 279 278 278 278 278 278 277 278 277 277 277 277 277 276 276 275 276
288 285 282 275 275 272 270 269 273 276 282 281 280 280 280 283 281 280 278 277 278 277 278 276 279 283 284 282 281 281 281 282 282 282 283 283 284 284 284 284 283 283 283 283 282 282 282 283 283 282 282 283 283 283 283 283 282 281 280 279 279 279 279 279 279 279 279 278 278 278 278 277 277 277 277 277 277 276 276 275 275 275 274 274 273 274
286 284 285 282 279 278 279 277 280 282 279 279 278 279 281 282 284 283 278 277 278 276 276 282 281 280 283 283 283 283 280 281 282 280 283 283 283 284 284 284 283 284 284 283 283 283 283 283 283 283 283 283 283 283 282 282 281 280 279 279 278 278 279 279 279 278 278 278 277 277 277 277 277 277 276 276 275 275 274 273 273 272 272 272 272 272
283 283 283 284 284 285 281 279 280 283 281 280 280 281 282 282 282 283 280 279 277 277 278 283 281 282 285 283 281 280 279 279 279 280 280 282 283 284 284 283 285 284 284 284 283 283 283 283 283 282 282 282 282 281 281 280 280 280 279 279 278 278 279 278 278 278 277 277 276 276 276 276 276 275 275 274 274 273 272 272 271 271 271 271 270 270
285 283 281 283 283 281 280 280 282 283 283 282 282 283 281 280 280 282 282 284 283 282 280 282 280 280 283 282 283 283 283 282 282 282 283 284 283 282 281 282 282 283 283 283 284 284 284 283 283 282 282 282 281 280 279 279 278 278 278 278 278 278 278 277 277 276 276 275 275 275 275 275 275 274 273 272 272 271 270 270 269 269 269 269 269 269
286 280 279 282 281 280 279 281 281 283 281 281 281 281 281 280 282 283 283 284 283 284 286 285 284 282 284 281 283 283 283 283 282 282 282 282 282 282 281 281 282 282 282 282 283 284 284 284 282 281 281 280 280 280 279 278 278 278 278 277 277 277 276 276 276 275 275 274 274 274 274 273 272 272 271 270 269 269 268 268 268 267 267 267 267 267
287 282 283 279 280 279 276 278 278 279 278 279 282 282 281 280 281 282 283 281 280 280 281 280 281 282 283 284 284 283 282 283 281 281 282 283 281 281 281 281 282 282 283 283 283 283 283 282 281 280 280 280 280 280 279 278 278 278 277 276 276 276 275 275 274 274 274 274 273 273 272 271 270 270 269 268 267 267 266 266 266 266 266 266 266 266
286 279 277 277 278 278 275 278 277 275 277 277 278 280 278 278 277 279 277 280 280 280 282 280 279 280 282 281 283 281 280 281 283 282 281 281 280 281 281 282 282 282 282 282 281 281 281 280 280 280 280 280 280 279 278 278 277 277 276 275 275 275 274 274 273 273 273 273 272 271 270 269 268 267 267 266 265 265 265 265 264 264 264 264 264 265
283 279 277 276 277 279 275 275 274 276 278 278 279 281 280 280 281 280 282 282 283 284 280 278 280 284 281 280 280 281 281 281 281 280 280 280 280 280 280 281 281 281 281 281 280 280 280 280 280 280 280 280 279 278 278 278 277 277 276 274 274 273 272 272 272 272 271 271 270 269 268 267 266 266 265 265 264 264 263 263 263 263 263 263 263 264
281 282 277 279 277 275 271 273 276 277 272 275 281 280 283 280 281 278 280 281 282 283 282 283 283 277 276 278 279 280 279 279 280 281 281 281 281 279 279 279 279 280 280 279 279 279 280 280 280 280 280 279 279 279 279 278 278 276 275 274 272 271 271 271 270 270 269 268 268 267 267 266 265 264 264 264 263 263 262 262 262 262 262 262 263 262
281 281 279 278 277 273 273 275 274 271 274 279 277 276 277 282 282 282 282 283 281 281 281 281 282 280 280 281 281 282 279 277 276 277 277 278 279 280 280 279 279 279 279 279 278 279 279 279 279 278 277 277 277 277 276 275 275 273 272 271 271 270 269 269 269 269 268 267 267 266 265 265 264 263 263 262 262 261 261 261 261 261 262 262 262 261
280 281 278 277 276 274 272 275 269 272 279 276 275 274 275 275 274 276 275 276 276 279 280 280 281 281 281 281 280 278 278 276 274 275 276 277 278 280 279 280 280 279 279 279 279 279 278 278 278 278 278 277 276 276 276 274 273 272 271 270 270 269 269 268 268 267 267 266 265 265 265 264 263 262 262 262 261 260 261 261 261 260 261 261 261 261
284 282 282 278 280 273 275 273 276 280 279 278 272 275 277 277 275 275 272 276 276 277 278 279 280 280 280 279 278 275 273 275 276 278 276 277 277 278 280 280 280 279 279 280 279 280 279 278 278 278 277 276 275 275 274 272 272 270 269 268 268 268 268 267 267 266 266 265 265 264 264 263 262 261 261 261 260 259 259 260 260 260 261 260 260 260
283 283 283 280 278 279 273 272 272 272 271 277 279 277 277 278 277 277 276 272 275 276 279 279 278 279 278 277 275 273 275 275 275 278 277 278 277 276 277 278 277 277 278 277 277 276 276 276 277 277 276 275 273 273 272 271 270 269 268 267 267 267 267 266 266 265 265 264 264 264 263 262 261 260 260 259 258 259 260 260 260 259 260 259 259 259
281 283 281 281 278 278 274 272 272 271 274 279 277 275 275 276 278 275 268 268 272 274 276 276 277 277 276 275 272 273 273 268 272 277 278 276 276 275 276 276 276 276 276 277 277 276 276 276 277 276 274 273 272 270 270 269 269 269 268 267 266 266 266 266 265 264 264 264 263 263 262 261 260 260 259 258 259 258 258 258 258 259 259 259 258 258
278 277 279 276 276 278 276 273 271 275 273 274 271 274 275 274 276 274 265 263 270 271 273 274 276 276 276 274 273 274 274 267 273 276 276 277 277 276 276 276 276 275 276 275 276 276 276 275 273 273 272 272 272 269 268 268 268 268 267 266 265 265 265 265 264 264 263 263 262 261 260 260 259 259 258 258 258 258 258 258 258 258 258 258 258 258
276 275 277 274 277 278 278 275 276 275 277 272 273 273 274 273 273 266 267 270 271 271 272 274 276 277 275 272 274 271 276 278 277 277 275 274 276 276 275 275 276 276 276 275 276 277 274 274 275 275 273 273 269 267 267 267 268 267 266 265 265 264 264 264 263 263 262 262 261 260 259 258 258 257 257 257 257 257 257 257 258 258 257 256 257 257
268 272 273 276 274 274 277 274 274 277 280 274 274 276 275 275 266 269 273 272 274 273 273 274 276 276 275 275 275 277 278 278 275 274 274 275 276 275 275 275 275 274 274 274 275 274 273 272 272 270 269 268 267 266 266 267 267 266 264 264 264 264 263 262 262 262 260 260 259 258 257 256 256 257 255 255 255 255 256 256 256 256 256 256 256 255
271 271 270 274 275 273 274 272 272 268 277 276 276 275 276 270 272 275 274 273 272 274 274 273 275 275 275 275 276 277 277 276 275 275 274 273 274 275 274 274 274 275 274 273 273 272 273 271 270 269 268 266 265 265 265 265 265 263 263 263 263 263 262 262 261 261 260 258 257 257 256 255 255 254 254 253 254 254 254 255 255 255 255 255 255 255
272 264 259 265 275 269 272 270 270 277 277 278 280 274 273 279 278 276 276 274 274 274 274 274 274 275 275 277 276 276 276 275 273 273 272 272 273 273 272 273 273 273 272 272 273 272 271 271 269 267 265 264 264 264 264 264 264 262 262 263 262 262 261 260 259 258 257 256 256 255 254 254 253 253 252 253 253 253 253 254 254 254 254 255 254 255
275 271 271 268 272 270 269 274 276 275 277 278 280 278 278 280 278 275 275 276 275 275 274 274 276 276 276 276 276 276 275 275 276 276 274 275 274 273 273 273 274 274 274 273 272 270 270 271 268 266 264 263 262 262 261 262 263 261 261 262 262 261 259 258 256 255 255 254 252 252 251 252 252 252 252 253 253 253 254 254 253 254 253 254 254 254
272 272 270 271 271 273 273 275 274 274 274 277 278 277 277 278 277 274 276 276 275 276 276 276 277 276 275 275 275 273 274 276 275 274 273 273 273 273 272 272 271 270 270 270 268 269 269 267 266 264 263 262 261 261 260 260 261 260 260 261 260 259 258 256 254 253 252 251 252 252 251 251 251 251 252 252 253 253 254 253 254 254 254 254 254 254
271 271 271 271 270 269 267 271 275 276 274 276 279 280 277 277 276 276 275 277 278 276 275 275 276 275 275 273 275 276 276 276 275 275 274 274 273 273 272 273 272 272 271 270 270 268 266 265 265 263 263 261 261 260 260 258 258 259 260 258 259 258 256 254 253 253 253 252 252 251 251 251 251 252 252 251 252 253 253 254 254 253 254 254 254 254
271 274 271 271 270 270 269 272 273 274 273 275 277 277 277 278 277 276 277 277 277 276 275 276 274 273 272 272 274 275 276 276 275 275 274 274 274 274 273 272 272 271 270 270 268 267 266 266 266 264 263 262 261 260 258 257 257 257 257 257 258 255 253 253 253 253 251 250 251 251 251 251 254 254 253 253 252 253 253 254 253 253 253 254 255 255
273 275 265 269 271 271 272 272 272 273 274 275 275 275 277 277 278 277 277 277 276 275 275 273 274 276 274 276 275 275 274 276 275 275 275 275 273 272 272 273 272 272 270 267 265 265 267 266 265 265 263 262 261 259 257 256 256 256 256 257 254 253 253 253 253 252 249 250 249 249 252 252 252 252 252 252 253 253 254 254 254 254 255 257 257 257
270 271 272 269 267 266 267 271 273 268 268 275 276 276 276 277 277 277 277 274 274 275 275 275 275 273 274 275 275 274 274 275 275 273 273 274 274 274 273 272 271 270 268 266 265 264 264 264 265 263 262 261 260 258 257 255 255 255 257 255 254 253 252 253 251 250 249 250 250 250 251 252 251 251 252 252 252 253 253 257 260 261 259 259 263 266
274 275 274 271 272 269 274 275 277 277 277 278 279 277 276 276 276 275 276 276 277 277 277 276 275 274 273 273 273 273 274 275 275 273 273 274 274 274 274 272 270 268 267 263 262 261 262 262 261 260 260 259 258 257 256 255 255 254 255 255 254 253 252 252 252 252 251 250 250 252 252 251 251 251 251 252 252 252 253 253 255 260 263 264 264 266
Wind_Speed
0 5 6 8 9 9 7 11 11 4 3 2 2 2 4 5 5 5 3 4 1 1 6 7 4 5 9 4 5 4 3 6 6 6 5 4 5 4 5 5 5 6 5 5 5 7 8 8 8 7 7 8 8 11 11 11 11 11 8 9 11 7 7 7 7 8 7 8 8 10 11 9 8 8 8 10 9 10 9 10 11 11 10 10 10 10
3 5 8 9 9 8 8 6 3 0 1 2 2 3 6 3 8 3 2 1 3 1 4 1 2 9 7 2 4 3 3 5 2 3 4 4 4 4 5 5 5 3 2 6 8 9 8 8 9 8 8 10 13 11 11 12 10 9 10 11 7 7 9 8 8 7 9 7 7 10 7 9 8 9 10 10 10 9 9 11 11 10 10 10 10 10
1 8 8 12 3 4 2 4 2 5 4 1 3 3 3 7 4 8 3 2 2 4 7 3 3 9 1 2 3 4 4 2 2 1 1 4 4 3 3 4 4 4 5 6 6 7 7 9 9 7 7 8 7 8 9 7 9 10 10 8 8 8 8 8 6 8 8 7 6 8 6 7 9 8 8 9 7 8 10 11 11 10 10 10 10 11
4 5 14 6 5 4 1 3 4 2 1 5 2 2 9 2 1 6 1 2 1 1 2 1 5 9 3 3 4 2 1 3 3 4 4 3 4 4 4 3 3 4 6 7 6 7 6 6 6 7 8 8 7 7 8 9 9 7 8 8 8 8 7 6 7 8 8 10 10 10 10 9 9 7 6 9 8 9 12 13 10 10 10 10 11 11
10 2 1 5 5 6 6 3 4 4 6 2 5 5 4 2 5 8 4 2 1 0 1 0 5 8 1 3 0 2 2 3 3 4 5 4 3 2 2 4 4 5 4 4 5 6 6 7 8 8 7 6 7 7 8 8 7 5 8 8 8 8 8 6 6 6 5 7 8 7 8 7 7 7 7 9 11 9 8 9 11 10 9 10 10 10
8 6 3 4 2 3 4 3 7 6 5 2 6 11 8 7 9 4 3 3 6 4 3 1 3 4 3 5 4 2 1 2 3 5 4 3 4 4 5 5 4 4 3 3 4 5 5 6 6 7 7 8 7 8 7 6 7 7 7 7 8 7 7 7 8 6 5 6 6 5 6 9 10 10 9 9 8 8 9 9 6 9 10 9 10 10
6 1 4 6 4 4 5 5 3 7 4 1 6 8 11 7 3 2 2 3 1 1 1 2 5 4 5 2 3 2 3 3 2 3 1 2 3 3 4 3 3 3 4 4 5 5 7 8 8 8 9 8 9 9 7 7 7 8 8 8 8 7 7 6 7 7 6 9 9 11 10 8 8 10 7 5 4 6 6 6 9 8 9 9 10 10
2 1 3 2 4 5 4 5 4 9 6 4 2 3 3 4 5 5 5 6 3 1 2 2 2 3 5 8 2 4 4 2 2 1 1 1 1 3 3 2 2 3 2 3 4 5 5 6 6 7 7 7 7 6 6 7 7 9 9 8 9 7 8 8 7 9 7 10 9 10 10 8 8 9 8 5 6 5 6 8 8 7 8 9 9 9
4 1 2 3 2 3 6 5 6 9 7 3 1 4 5 6 5 6 6 4 1 1 6 3 1 1 4 6 1 2 2 3 4 5 5 4 3 3 2 2 2 1 2 3 5 5 5 5 6 5 6 5 6 6 6 6 6 7 7 7 8 9 8 7 7 7 8 8 8 9 8 11 7 7 6 5 5 7 5 10 7 8 7 8 9 9
2 1 5 7 6 5 4 2 7 11 6 1 5 8 7 7 6 5 5 5 1 1 5 5 3 3 6 6 2 1 3 6 7 9 8 6 7 6 5 3 2 1 3 3 3 4 4 4 4 4 3 5 5 5 5 6 6 7 7 8 10 10 8 6 8 8 10 9 7 9 9 12 8 6 6 6 7 7 6 9 8 7 7 7 7 8
0 3 4 4 5 3 4 3 1 0 1 7 4 7 5 7 4 3 6 3 3 1 7 6 3 3 4 4 7 6 6 5 8 2 4 5 6 6 5 5 4 3 3 3 3 4 4 3 4 4 5 4 5 5 5 6 7 6 8 9 13 9 7 8 9 9 10 8 8 9 9 11 11 9 8 8 8 7 8 8 8 7 6 6 7 6
1 1 0 2 4 4 4 4 4 2 2 4 2 3 4 2 5 3 3 4 1 5 5 1 3 0 6 5 4 6 2 3 11 13 12 11 10 8 7 5 5 4 3 2 3 4 4 5 5 4 6 5 5 5 6 6 6 7 7 9 13 10 8 8 8 9 10 8 9 10 10 11 9 8 8 10 9 7 8 7 7 5 6 7 6 6
3 6 2 2 3 8 3 7 4 3 0 2 4 5 5 3 4 2 2 2 5 4 1 3 2 1 8 6 0 2 5 1 3 6 15 14 11 9 7 7 5 4 4 4 4 3 4 4 4 4 4 4 5 5 6 6 6 7 8 9 13 10 8 8 8 10 10 10 9 9 9 9 7 8 9 8 8 5 6 5 6 5 6 4 6 6
5 1 1 3 2 4 6 7 3 1 2 4 5 5 5 0 1 3 5 1 5 5 3 1 1 3 3 7 2 5 3 2 3 4 4 11 13 12 9 7 6 5 5 5 4 4 4 3 2 3 4 4 4 5 6 5 6 6 7 7 12 9 6 7 8 9 10 9 8 7 7 7 6 7 7 6 7 5 5 4 5 5 4 5 5 4
1 2 5 7 4 2 6 4 9 6 9 8 2 7 7 7 5 4 4 4 3 3 1 4 1 5 5 3 2 5 5 5 5 5 5 4 4 6 5 6 6 6 6 5 5 5 5 4 4 4 4 4 4 5 6 5 5 6 7 7 10 10 7 7 7 7 9 7 7 6 6 7 6 7 6 5 5 5 5 4 5 4 3 4 3 3
4 4 1 3 2 1 8 0 4 6 6 0 2 5 5 6 5 2 3 2 1 2 2 1 5 3 3 1 4 3 2 2 1 4 5 8 6 7 7 8 8 7 7 6 6 6 5 5 5 4 4 4 5 5 5 6 5 6 6 7 7 8 6 6 7 7 7 7 6 7 8 7 7 5 5 5 4 4 4 4 5 4 3 3 2 2
3 3 1 4 2 2 0 1 0 2 5 4 4 4 5 1 5 5 1 2 1 3 8 3 6 4 2 2 0 2 2 2 1 4 7 9 8 7 8 9 9 9 8 7 7 6 6 5 5 5 5 5 5 5 6 6 5 7 7 7 8 7 6 6 7 7 6 6 7 6 6 6 6 6 6 5 5 5 3 4 3 4 2 2 1 1
7 3 1 2 2 1 0 0 2 4 3 8 1 7 1 1 3 3 3 1 3 3 6 3 7 2 4 5 1 1 1 1 2 6 7 7 7 10 11 10 11 10 8 6 6 7 7 7 7 6 5 6 6 6 6 6 5 5 5 6 8 7 7 5 5 6 5 6 6 5 5 5 5 5 5 4 5 3 3 2 2 2 2 3 2 2
3 1 1 1 1 2 1 0 6 2 2 2 2 2 3 2 1 2 3 3 1 4 6 4 2 4 7 5 2 6 7 8 7 7 7 11 11 12 12 12 10 8 6 7 8 7 7 7 7 7 7 6 5 5 5 5 4 4 4 4 5 7 6 6 4 4 4 4 4 4 4 5 4 3 3 3 3 3 5 5 5 5 5 5 5 5
1 4 2 1 2 1 1 3 6 2 1 2 1 2 0 1 1 4 5 3 5 4 3 6 4 5 7 6 13 10 13 11 10 9 13 17 18 15 14 13 12 10 8 7 8 8 8 8 8 8 8 7 7 6 6 5 4 5 5 5 5 4 5 4 5 4 5 4 4 4 4 3 3 3 4 4 5 6 6 5 6 6 6 5 3 4
2 1 3 1 3 1 2 3 7 10 7 2 2 1 0 1 2 3 1 3 2 2 3 2 11 1 3 4 7 6 8 13 16 16 14 15 15 14 12 11 10 8 9 8 8 8 8 8 7 7 6 6 5 5 5 6 6 6 5 6 6 7 6 6 5 4 4 4 4 6 7 6 6 6 4 6 6 6 5 4 4 3 2 1 4 3
3 1 6 1 1 3 5 1 2 3 5 8 10 8 10 6 3 1 7 2 0 2 4 2 13 3 3 2 3 3 4 9 13 15 16 16 15 14 10 7 6 8 7 7 8 8 8 7 7 6 5 5 5 5 6 6 5 6 6 5 5 5 4 5 4 4 4 5 5 6 5 4 3 3 4 6 6 6 5 4 4 4 4 6 4 5
3 3 7 2 7 6 2 1 2 1 1 1 5 6 7 3 6 4 3 4 1 4 3 1 1 10 1 2 3 4 4 6 8 6 8 7 8 6 5 5 6 8 7 8 8 8 8 7 8 8 8 7 7 7 7 6 6 6 6 5 4 6 3 3 3 2 3 5 5 5 4 4 5 5 7 7 5 6 6 6 7 6 7 7 7 6
3 3 2 2 2 2 1 1 1 0 1 1 1 2 5 7 7 7 5 6 6 0 2 1 4 4 1 0 4 5 4 4 4 7 4 3 4 6 6 8 10 7 4 6 6 6 7 7 6 7 7 7 7 7 7 6 5 5 4 4 4 5 4 3 2 3 4 5 6 6 8 7 6 8 7 8 6 8 7 6 6 6 5 5 4 5
3 3 6 2 1 1 3 1 1 1 1 2 2 3 2 3 5 2 5 1 1 7 6 5 15 8 1 1 3 2 1 0 3 3 5 6 4 7 9 8 6 6 6 7 9 9 8 7 8 9 8 9 8 8 7 6 5 5 5 4 4 4 3 3 3 4 5 7 8 8 7 7 7 7 7 6 5 6 5 5 5 5 5 5 5 6
2 3 6 6 8 6 5 4 4 5 8 3 0 1 3 7 7 3 3 2 7 1 9 5 12 4 0 1 2 2 1 0 1 3 2 4 7 9 9 9 7 7 8 9 8 7 10 11 8 7 9 7 7 7 6 6 6 5 5 4 2 4 4 3 4 6 7 6 8 7 8 6 6 6 6 6 5 6 5 5 5 5 5 6 6 6
3 1 3 5 7 8 5 5 3 4 3 4 3 6 6 4 4 4 3 4 9 1 5 12 7 5 5 0 2 1 1 3 4 3 7 8 8 8 6 6 8 8 8 9 10 10 6 5 10 10 6 7 7 6 6 6 6 5 5 4 3 3 5 5 6 6 8 7 7 7 6 6 5 5 4 4 4 4 4 5 5 5 6 6 6 6
3 2 5 5 8 6 3 3 4 4 4 4 5 6 6 7 8 8 8 9 6 1 15 5 7 4 10 4 4 3 4 4 4 4 5 5 6 9 8 5 4 6 6 5 6 7 10 12 8 8 10 9 8 6 5 5 5 5 6 6 4 5 6 5 7 7 7 7 7 6 5 4 4 4 4 4 4 4 4 4 4 5 5 5 6 6
4 5 2 3 6 3 2 3 4 3 3 4 7 8 7 7 6 10 11 9 9 12 17 4 8 4 9 3 8 9 8 7 9 10 11 8 4 4 4 5 7 8 7 7 7 8 10 11 10 12 10 9 7 8 7 6 5 5 5 5 5 6 6 5 8 7 7 6 6 4 4 4 3 3 4 4 4 4 4 4 4 5 5 5 5 5
3 3 2 1 3 1 2 3 2 5 2 2 6 8 7 11 12 12 12 9 10 11 11 10 10 16 9 3 8 7 5 5 4 3 2 4 7 6 6 6 8 7 6 7 9 11 11 11 9 10 10 9 9 8 8 7 6 7 8 7 6 7 5 6 7 7 6 5 5 4 4 4 4 4 3 3 3 3 3 3 5 5 5 5 5 5
2 2 6 0 1 4 0 3 1 1 2 5 12 11 7 6 7 12 8 5 2 6 9 8 12 19 4 9 6 2 2 1 1 3 7 6 6 7 8 9 7 7 7 8 9 10 8 7 8 7 9 10 10 9 8 8 7 7 7 7 7 6 5 6 6 5 5 5 5 4 4 4 3 2 2 2 2 2 4 5 5 5 5 5 6 6
2 2 3 2 1 5 0 3 3 1 0 7 15 13 8 9 9 8 5 7 6 12 11 8 10 13 1 4 1 3 2 4 8 6 4 5 7 8 8 6 5 6 7 8 8 7 8 9 9 10 11 11 9 9 9 9 8 8 8 7 7 6 5 6 6 6 5 5 5 4 3 2 2 1 1 2 3 3 4 4 4 4 5 5 6 5
4 4 3 2 3 7 0 2 3 1 3 11 21 13 13 12 8 3 8 8 14 11 8 9 14 5 2 4 4 5 6 7 6 5 5 5 6 6 7 8 8 7 8 9 9 9 10 11 12 12 10 7 9 9 9 10 10 10 9 8 7 6 6 6 6 7 5 5 4 4 3 2 1 1 1 3 3 3 4 4 5 4 5 5 6 6
4 6 3 3 3 0 2 1 3 4 9 15 2 1 11 11 12 10 11 11 9 8 7 6 7 3 4 3 6 7 8 7 7 8 5 5 5 7 8 8 9 9 8 8 9 9 9 8 7 7 8 8 8 8 8 9 9 8 7 8 7 8 7 8 6 6 5 5 4 3 3 2 1 2 2 3 3 3 4 4 4 4 4 5 5 5
7 5 5 2 3 3 3 4 3 11 17 1 2 5 2 6 13 17 15 11 7 7 5 7 10 6 7 9 10 10 5 4 4 4 3 6 6 5 5 6 7 7 7 5 4 6 7 8 7 6 7 8 8 8 9 7 8 9 8 7 8 7 8 6 7 6 5 5 4 3 2 2 2 2 2 3 3 3 3 4 4 4 5 5 6 6
7 7 3 1 4 3 3 6 6 10 1 2 3 1 1 6 2 1 6 3 4 9 9 8 11 10 11 11 8 2 2 2 2 4 7 7 7 8 7 9 10 7 6 8 9 8 8 9 11 12 9 7 9 8 8 10 8 10 9 7 8 7 6 7 7 6 5 5 3 3 2 2 2 2 2 3 3 4 4 4 4 6 6 5 5 4
8 4 5 7 5 7 6 10 13 5 9 6 3 1 5 5 6 6 7 6 11 9 8 7 12 13 9 6 4 0 2 1 4 8 6 9 10 9 11 11 7 7 8 7 7 8 8 7 7 7 8 8 8 9 9 8 9 9 9 8 7 7 7 7 7 6 5 5 3 2 2 2 2 2 2 3 4 5 5 5 5 5 4 6 6 6
0 9 5 7 6 7 4 3 1 2 9 12 2 3 2 1 5 3 3 6 0 7 11 13 10 9 10 5 1 3 3 1 7 10 5 11 8 8 6 5 3 4 5 3 2 3 5 5 5 7 10 11 8 7 8 9 9 10 9 8 7 7 7 6 6 6 5 4 2 2 2 2 1 2 3 4 4 4 4 4 4 4 3 5 7 7
3 1 1 5 3 5 3 5 5 6 8 1 1 1 1 1 8 5 4 7 4 8 8 7 10 10 8 5 4 5 4 3 8 10 6 5 4 6 7 7 6 5 5 7 9 8 8 8 8 9 8 9 11 8 8 9 10 10 9 8 7 7 7 6 7 6 5 4 3 3 1 1 1 2 2 3 3 3 5 4 4 4 4 4 4 6
2 1 2 1 5 6 3 5 7 3 5 1 3 1 3 3 5 4 3 7 1 7 6 6 9 9 8 5 8 7 8 6 9 8 4 6 6 8 9 8 7 7 6 6 3 3 7 8 10 7 9 11 11 9 10 10 9 7 9 8 7 7 6 6 6 5 5 4 3 1 1 1 1 1 2 3 3 3 3 4 4 4 5 5 4 6
3 1 2 9 8 9 10 5 2 5 2 2 6 4 3 2 4 2 8 8 4 7 6 7 8 9 5 7 8 8 11 9 4 3 0 2 3 2 5 4 4 5 7 6 7 7 9 8 10 13 14 10 10 10 9 9 9 9 8 8 7 6 6 5 5 5 4 3 2 1 1 1 1 3 3 3 4 3 3 3 5 5 4 5 5 5
2 3 3 1 6 8 7 8 9 7 4 7 2 8 5 3 2 9 5 3 8 6 8 9 10 6 8 11 10 10 8 5 2 0 1 4 6 4 4 3 2 2 1 3 6 7 7 7 6 5 5 6 10 9 8 8 9 8 7 6 5 6 5 6 6 5 2 2 1 1 1 1 2 2 2 3 3 4 4 4 4 4 5 4 5 7
9 8 6 8 2 3 2 7 5 11 1 8 9 3 1 5 7 3 2 1 3 3 7 8 9 7 8 8 10 9 8 2 4 5 4 4 4 4 4 4 7 8 8 6 5 6 9 8 8 8 9 7 8 8 6 8 8 7 6 6 5 6 6 6 5 4 2 2 1 0 1 1 2 3 2 3 3 4 5 4 4 5 4 6 6 7
3 5 3 3 5 6 8 9 9 4 5 8 12 7 5 8 6 5 4 1 2 5 6 6 8 9 8 9 9 10 8 7 3 4 5 5 5 4 2 5 5 4 4 4 5 10 8 8 7 7 7 7 7 5 6 9 9 7 8 6 6 7 6 4 3 4 2 1 0 0 1 2 2 3 3 3 3 3 5 6 5 5 4 5 5 5
7 8 6 6 4 9 8 6 1 1 6 9 6 6 6 9 5 7 4 4 4 6 5 4 8 7 9 9 8 7 6 7 9 7 7 8 7 7 7 8 9 9 9 10 9 8 8 12 12 9 8 7 6 5 5 5 10 8 8 6 7 6 6 5 4 3 2 1 1 1 2 2 2 3 3 4 3 3 4 6 4 5 3 4 5 5
3 2 2 3 5 2 3 4 1 1 2 6 6 4 4 3 1 4 5 4 5 5 8 8 8 6 7 7 7 5 7 7 7 7 6 7 6 6 4 3 4 5 4 4 4 8 7 5 7 9 10 7 7 6 4 4 7 10 6 7 6 5 5 5 5 3 2 2 2 2 1 1 3 3 3 4 3 3 4 5 5 4 6 4 5 5
3 2 1 3 2 1 6 2 5 5 1 5 11 9 2 1 3 3 4 6 7 3 4 5 4 3 5 6 9 10 10 9 8 9 8 7 6 7 7 9 8 9 10 11 10 9 7 8 9 10 11 11 7 7 4 4 3 4 6 7 6 6 5 6 4 3 3 3 2 2 1 1 2 3 3 3 2 3 3 4 4 4 4 4 5 5
4 5 3 5 1 4 5 4 4 3 3 5 6 6 6 7 5 5 6 4 3 2 4 6 4 5 4 5 10 10 12 10 9 10 8 8 9 8 8 9 10 7 8 7 7 9 7 10 12 12 12 11 9 7 6 5 4 5 6 5 6 6 6 5 5 5 4 4 2 2 1 2 3 3 3 3 3 3 4 4 4 4 5 5 6 5
3 5 4 5 6 1 3 2 3 3 5 6 6 7 6 6 6 5 7 7 5 5 6 5 6 7 7 10 8 8 9 11 10 11 10 9 7 6 9 11 11 11 9 9 9 11 14 12 12 12 12 10 8 8 7 6 5 5 6 5 5 6 7 5 4 4 3 2 1 2 2 2 3 3 3 3 3 4 5 5 4 6 7 9 8 7
4 6 3 3 2 3 5 4 3 2 5 7 7 10 10 11 8 9 7 5 6 7 8 7 8 6 7 8 7 8 10 12 10 8 9 10 9 9 8 9 8 8 9 8 7 9 8 8 11 11 11 8 8 8 8 7 6 5 5 5 6 6 6 5 4 4 3 2 2 2 2 2 3 2 3 3 3 4 5 7 11 9 7 7 11 14
9 11 7 8 8 4 6 11 10 9 8 9 10 5 7 7 7 9 11 11 10 9 9 7 8 7 8 11 8 9 10 11 12 8 8 8 10 10 10 8 7 8 9 8 8 8 9 8 7 7 8 9 9 8 8 7 6 6 5 6 6 7 6 6 5 3 3 2 2 3 3 2 2 3 2 3 3 3 5 8 7 10 12 13 11 12
Wind_Direction
115 138 177 202 217 211 205 201 209 217 151 121 123 147 216 219 274 281 270 254 293 327 243 252 264 248 270 329 322 338 22 59 51 57 50 41 38 39 31 37 31 42 33 336 4 16 11 10 8 6 8 10 20 25 15 20 21 23 19 31 35 19 26 40 47 43 40 60 71 54 56 62 51 59 68 57 47 51 48 43 44 39 36 30 32 28
74 171 230 223 221 208 209 210 229 72 114 193 222 214 267 171 253 247 258 5 317 157 292 29 290 266 254 345 337 340 60 41 21 59 58 49 52 35 42 36 26 14 348 18 26 15 15 13 10 13 19 13 26 9 14 22 16 18 23 36 25 19 39 40 51 72 66 58 61 89 69 78 52 43 45 48 40 41 44 42 40 40 38 39 40 33
110 201 230 231 202 96 91 158 164 193 215 115 204 235 274 257 256 277 287 358 308 138 259 2 313 275 217 45 36 47 71 81 48 82 96 94 62 56 40 42 41 43 38 36 28 20 19 12 13 20 21 27 31 21 23 11 26 27 29 27 27 28 33 35 37 58 71 68 64 80 88 77 83 60 64 69 60 51 55 48 43 40 39 38 40 35
254 279 238 226 126 146 46 105 132 114 102 194 181 164 239 212 13 294 292 11 16 141 271 0 323 287 77 78 59 18 124 110 79 85 78 87 89 77 57 37 42 44 37 39 19 17 11 17 18 25 26 19 23 25 23 17 27 31 32 28 34 35 35 39 36 62 70 78 84 77 85 77 73 81 77 75 59 51 49 46 41 41 40 41 45 36
211 207 336 147 167 166 206 150 142 167 238 271 196 217 235 179 220 193 249 299 297 9 74 304 321 292 252 199 115 81 61 77 17 54 50 39 46 41 79 61 35 46 36 37 27 16 17 22 23 22 19 13 36 30 26 15 21 28 33 32 35 37 38 36 36 45 75 104 93 99 97 101 101 70 53 51 43 41 51 54 40 37 38 44 49 45
277 253 109 78 109 166 175 206 210 156 238 308 225 206 215 207 226 245 346 355 9 330 355 127 328 301 308 278 209 176 10 29 356 63 33 16 34 44 52 43 26 38 35 53 33 21 13 22 17 23 24 30 34 34 18 11 22 30 41 41 41 47 40 35 37 41 63 58 75 84 72 63 61 57 42 43 44 40 42 52 53 47 39 43 49 45
213 351 166 193 158 162 182 203 233 159 185 67 271 200 214 214 193 155 131 101 281 157 353 37 172 266 332 315 208 140 72 37 8 27 341 14 35 49 61 38 26 22 35 31 40 28 32 17 28 25 23 13 27 18 5 16 28 34 44 47 47 48 47 35 37 43 69 72 65 67 70 78 77 91 67 65 57 66 63 63 54 53 46 40 47 47
123 10 88 70 150 164 174 233 239 159 137 231 253 146 158 158 178 195 154 171 222 256 306 55 121 197 306 286 23 142 111 62 70 279 307 267 17 84 74 26 37 48 40 60 47 45 41 37 31 30 12 16 18 2 10 30 25 36 39 46 49 48 48 37 31 51 42 80 80 82 81 71 71 73 92 78 73 64 68 66 53 51 48 43 42 45
139 133 157 152 120 141 206 208 182 167 147 221 198 136 147 168 179 139 147 169 215 43 280 322 210 299 246 263 31 208 180 200 232 218 214 218 220 203 194 210 136 15 41 73 70 48 38 35 26 24 27 8 18 11 26 31 34 42 43 56 60 55 52 45 48 63 55 71 83 87 90 84 69 79 83 84 67 66 54 68 52 52 49 49 45 43
295 185 206 153 137 205 225 259 174 170 190 232 125 92 85 78 72 116 109 122 333 94 259 252 182 226 271 274 334 16 250 235 208 207 202 210 202 203 203 197 205 36 58 44 60 45 39 24 27 10 27 33 19 21 30 38 50 53 59 64 63 54 47 47 54 61 63 64 76 82 80 89 88 81 80 72 67 61 50 64 53 49 49 44 47 45
180 318 152 118 185 205 130 32 120 226 88 127 109 78 39 41 55 43 66 95 69 243 244 231 256 183 293 252 216 152 218 187 161 109 217 227 233 234 220 209 191 153 84 60 42 40 32 9 30 29 58 43 33 34 46 50 51 55 66 73 67 50 51 50 57 62 65 66 62 80 85 89 93 86 87 80 64 62 55 59 50 48 47 42 45 42
34 39 147 259 91 102 99 74 27 83 122 125 125 126 89 11 9 31 342 29 146 265 261 271 213 117 181 287 292 232 293 223 165 172 182 191 201 201 199 207 204 195 180 135 91 69 51 61 42 38 57 44 42 48 54 56 53 63 70 78 80 55 50 51 57 68 64 68 69 72 79 83 80 87 84 79 79 64 70 63 62 52 54 45 46 42
267 220 224 39 221 129 117 87 11 35 33 82 86 68 114 250 39 291 13 260 210 207 208 331 154 352 239 224 202 208 227 276 259 183 177 181 189 190 197 197 191 187 181 171 149 118 86 84 85 78 71 65 62 64 67 64 65 69 71 76 87 67 48 54 54 70 66 68 65 70 75 79 79 79 81 85 84 73 79 79 78 66 64 51 51 38
273 334 149 184 67 226 140 135 149 72 186 118 153 140 93 113 65 270 269 266 308 288 280 36 85 263 255 288 220 184 213 206 241 261 218 185 180 183 185 183 182 192 190 181 161 148 143 147 129 147 129 110 98 85 80 77 79 76 82 78 85 84 58 62 64 67 79 71 73 70 80 85 93 86 85 82 91 85 82 83 79 72 69 65 59 50
172 298 244 153 209 147 186 181 179 160 162 202 114 145 178 141 158 230 184 216 229 191 283 282 69 234 137 223 325 239 271 283 255 245 238 198 185 170 163 168 177 191 203 186 168 172 169 184 189 166 145 146 129 109 97 92 90 93 89 89 94 93 72 72 77 81 81 81 76 77 78 79 76 84 82 83 83 88 90 79 87 79 73 75 68 65
208 221 291 348 247 37 178 291 114 100 58 196 169 82 94 233 139 225 206 154 227 330 333 204 212 190 171 209 278 298 294 331 321 200 185 172 164 155 163 183 193 200 200 180 173 175 194 201 203 181 169 163 145 128 114 105 113 108 105 101 96 102 104 91 90 81 85 84 80 74 77 73 76 82 83 81 74 73 82 94 89 85 78 77 72 56
38 263 337 316 29 93 158 121 313 136 199 208 109 193 207 139 102 92 78 52 85 53 254 149 305 302 302 303 355 337 78 336 81 166 177 177 172 170 187 195 203 206 196 179 173 179 186 197 198 183 179 167 153 144 143 142 138 130 125 118 109 102 97 96 90 97 88 90 87 81 87 90 89 92 97 107 106 94 71 78 97 103 105 77 58 30
142 232 321 82 153 355 43 212 116 32 142 99 175 234 169 151 115 132 230 7 66 198 269 104 207 249 104 271 31 26 325 244 233 191 193 182 171 187 201 201 203 203 194 175 179 185 185 187 183 187 190 177 170 163 159 158 166 140 132 128 120 117 114 113 110 103 109 103 102 105 98 89 94 101 110 117 131 147 125 104 76 82 55 45 14 353
113 277 305 347 111 303 10 119 50 358 53 143 194 210 118 217 182 314 86 271 233 259 275 292 255 246 180 231 76 244 209 215 204 198 180 190 197 203 206 209 210 204 169 167 184 189 195 191 187 184 183 185 180 176 171 160 142 133 131 132 131 134 138 139 125 112 101 108 107 114 110 115 106 94 93 90 89 83 65 48 31 27 23 25 11 12
46 154 278 311 130 292 9 84 184 186 350 48 82 65 44 115 172 120 202 181 111 267 35 283 126 255 195 216 183 206 204 189 174 186 203 199 196 196 201 202 198 194 187 185 187 191 187 190 190 184 176 175 177 173 176 158 143 154 158 149 142 124 120 110 110 110 101 95 99 101 98 73 79 69 63 51 61 52 47 38 31 22 19 14 13 16
126 99 196 283 283 76 170 184 210 162 153 66 82 322 44 18 220 103 33 131 177 188 206 289 297 279 257 208 188 221 195 182 177 190 200 202 204 205 203 194 191 190 191 185 186 185 185 193 194 191 186 179 174 169 162 165 171 173 160 155 151 139 136 119 126 121 121 125 96 81 58 47 41 43 42 58 55 66 58 59 56 46 33 25 39 22
87 155 179 299 104 216 235 271 203 180 175 164 163 191 177 128 134 172 254 63 78 128 242 183 265 242 262 137 217 225 223 190 204 188 191 202 205 199 191 191 182 193 199 181 181 180 188 195 193 192 189 175 162 171 172 186 169 156 155 142 140 128 111 117 97 85 88 76 79 87 95 82 71 69 69 69 56 56 54 47 47 34 36 42 22 24
143 131 100 170 194 196 242 314 268 226 115 184 157 218 173 152 111 130 210 249 9 250 99 157 320 274 189 194 245 233 233 221 206 202 221 217 203 199 194 178 192 197 183 177 182 190 193 190 187 185 183 178 180 182 182 180 173 157 137 132 130 117 118 104 114 124 122 117 108 100 102 87 59 55 55 59 48 48 39 34 31 27 29 22 12 11
94 98 68 305 318 322 346 357 4 131 104 79 355 74 137 185 185 187 177 176 164 222 98 0 248 264 345 160 264 267 255 262 220 199 203 166 168 180 185 200 202 184 161 167 181 188 190 188 184 177 183 183 191 189 189 184 161 134 134 139 140 120 129 125 129 143 143 117 77 70 66 55 50 52 44 45 35 37 32 32 31 25 32 22 9 5
134 252 132 128 22 348 346 357 8 354 39 223 181 212 174 99 80 125 96 87 268 211 160 148 257 263 255 354 330 13 47 185 212 214 171 189 181 185 198 207 198 187 171 177 184 188 187 190 190 193 186 188 191 191 188 179 162 153 151 149 132 128 128 108 182 123 76 79 76 56 64 55 47 50 44 44 42 43 39 34 30 24 19 14 4 357
151 164 137 171 197 207 213 163 231 236 218 214 161 148 231 142 133 106 204 159 223 248 140 211 253 262 184 296 3 11 45 41 276 194 216 200 194 195 203 204 190 185 195 190 185 176 195 201 193 186 194 191 191 189 185 173 162 159 151 124 99 141 140 133 93 73 80 75 82 69 60 56 51 49 46 44 44 44 37 28 25 12 12 9 356 349
182 128 183 177 174 225 208 202 239 121 82 173 227 185 194 208 191 153 111 175 216 174 214 235 231 283 280 77 287 274 166 200 218 194 194 207 212 211 210 200 194 200 197 194 192 196 190 183 201 198 183 193 193 191 185 173 166 156 130 102 114 146 117 97 89 86 87 83 79 76 67 60 57 53 54 55 55 46 32 24 11 7 8 0 354 347
83 228 233 215 226 238 166 184 200 163 171 223 190 233 205 175 169 168 188 227 138 184 259 239 114 213 256 182 218 256 252 257 267 244 245 254 232 212 211 189 182 197 216 194 184 184 196 207 197 176 192 192 192 183 179 165 151 149 148 142 137 114 100 99 98 94 87 85 81 77 76 76 77 72 67 58 49 36 22 7 3 6 1 357 354 352
147 213 282 148 254 123 71 119 153 147 201 190 206 210 194 178 151 193 218 211 157 212 247 197 153 222 260 182 197 215 201 201 209 215 217 213 189 157 149 178 200 210 203 193 200 200 207 209 195 192 192 194 178 178 172 150 129 121 114 119 116 103 100 114 103 96 94 91 98 103 99 93 80 66 60 42 37 24 6 359 1 3 359 356 350 344
95 244 196 150 258 127 95 118 175 182 243 270 240 223 197 161 187 192 219 209 196 236 256 274 282 263 259 163 197 225 206 199 221 206 138 170 197 178 173 199 209 210 197 200 209 212 214 211 192 192 189 187 185 178 169 164 162 157 142 129 118 107 117 108 102 108 111 113 115 106 95 83 64 52 47 37 24 12 352 357 4 357 354 352 346 337
136 267 101 289 148 273 22 97 73 151 177 274 260 239 198 175 189 212 218 221 212 282 273 278 267 270 256 178 206 224 206 136 92 177 202 200 172 184 198 208 209 207 208 215 220 222 218 211 201 190 190 192 187 182 174 170 157 141 127 128 127 124 124 112 116 118 121 115 106 94 85 72 62 60 49 44 6 1 5 5 358 354 348 347 341 337
132 244 51 100 248 274 167 150 178 74 184 252 268 255 140 166 184 214 198 202 180 225 238 246 260 262 178 202 202 196 192 189 218 217 188 208 202 199 211 223 222 230 233 231 229 221 208 202 194 193 197 194 184 176 171 158 154 145 144 141 136 130 123 116 118 118 112 107 104 97 92 98 95 97 46 25 8 12 9 0 356 350 346 336 335 334
176 132 137 131 179 249 44 156 160 111 344 291 259 247 187 200 195 148 222 199 206 205 213 228 241 256 160 173 150 243 225 240 251 240 222 230 218 208 218 223 226 230 230 226 218 212 207 199 197 197 195 181 180 181 181 157 149 163 152 147 143 126 123 119 118 119 114 112 115 116 116 115 111 87 45 21 13 7 2 2 347 345 336 334 328 321
129 155 169 176 183 236 359 88 134 146 232 239 17 150 167 189 187 185 219 210 213 169 208 214 245 107 129 156 210 239 229 225 221 238 204 206 221 215 218 216 224 226 225 213 206 204 206 200 197 194 190 186 181 175 160 164 157 143 139 132 129 128 129 125 126 125 125 126 124 128 132 126 104 56 29 17 9 5 357 353 344 331 319 317 321 319
171 165 181 172 167 228 109 96 171 207 237 42 320 358 315 188 174 198 216 217 197 198 242 274 265 250 224 223 224 240 243 245 246 233 244 222 207 232 251 263 254 243 238 231 218 210 200 192 182 168 169 172 161 148 137 128 128 130 128 135 126 133 129 133 133 131 137 136 137 137 117 79 59 36 15 6 7 358 350 342 328 327 326 326 320 321
171 158 140 151 124 66 123 189 214 228 241 111 4 30 6 88 44 84 316 286 169 192 192 228 245 241 243 242 250 230 232 261 303 234 228 244 210 208 216 228 233 221 221 217 209 212 187 184 185 182 178 147 141 147 150 143 143 137 133 127 131 135 136 138 134 137 137 134 130 112 84 71 50 18 6 357 357 357 342 339 332 327 323 315 306 299
170 143 171 207 164 193 190 194 229 347 317 238 96 236 160 176 187 160 232 252 194 191 180 217 243 246 248 254 248 119 50 35 325 280 214 223 227 214 211 223 217 215 217 228 206 211 197 188 173 162 142 150 154 152 155 146 141 132 131 136 141 138 147 141 137 145 139 133 123 105 89 64 49 11 2 358 352 344 335 333 323 320 318 312 311 311
217 180 209 188 231 154 159 201 274 262 237 257 211 191 47 101 114 138 106 282 185 189 202 206 233 253 252 244 99 111 93 36 296 276 228 224 216 212 233 245 246 221 217 202 160 148 153 156 130 139 151 151 156 154 143 147 145 142 143 148 149 148 152 148 149 148 141 133 126 116 100 74 68 21 3 355 334 323 319 313 301 298 312 310 311 310
23 76 15 198 217 125 193 211 224 231 251 99 226 162 295 150 123 100 66 300 250 202 217 185 223 239 237 198 176 140 107 197 252 256 257 237 211 194 199 222 218 215 203 191 177 169 171 167 154 146 141 148 157 161 153 150 146 145 153 156 162 160 154 160 151 151 143 136 128 120 105 98 74 27 348 327 310 310 304 305 301 299 297 285 289 292
77 25 133 113 218 225 190 232 234 229 258 292 161 191 189 138 97 63 349 279 254 218 213 177 211 230 230 183 147 153 163 201 248 256 235 206 193 184 187 202 205 209 213 202 216 168 145 131 120 132 156 176 176 153 156 151 152 155 158 163 158 159 166 162 150 134 127 124 119 108 101 84 68 12 334 308 311 302 294 297 297 298 302 299 292 295
171 288 208 213 217 223 229 254 309 277 261 152 163 163 142 138 73 83 236 234 228 211 212 192 210 220 167 149 161 178 223 206 200 230 271 118 112 196 233 228 211 195 195 188 181 138 148 167 168 174 182 177 155 156 157 155 151 164 164 159 160 177 163 139 127 125 119 118 110 97 80 51 40 339 315 303 297 301 300 294 296 302 298 296 296 288
352 90 328 310 227 220 228 235 241 277 226 156 276 147 168 96 233 223 235 192 159 213 211 196 212 210 161 180 187 209 227 206 131 4 113 195 182 212 209 199 145 105 68 145 155 154 153 160 151 129 128 146 158 159 160 158 161 161 160 161 180 166 133 129 120 114 116 114 93 89 47 9 331 318 291 301 303 304 291 284 284 287 290 288 295 296
191 144 208 201 190 54 143 239 242 240 196 118 129 50 278 142 238 194 182 236 201 196 172 209 212 222 174 205 215 220 239 210 179 210 226 230 232 237 199 168 186 186 172 147 159 186 160 159 171 176 164 154 160 161 164 156 158 162 162 175 172 138 130 122 119 116 120 109 107 74 342 320 307 296 308 299 288 287 288 289 291 286 284 293 292 292
211 99 253 267 195 166 193 207 212 222 124 169 139 184 214 205 192 159 130 256 224 181 196 197 225 213 197 200 209 227 235 239 276 247 235 246 240 253 221 211 210 198 193 216 189 175 168 165 161 155 155 160 164 170 168 164 160 165 170 178 139 138 123 126 121 123 117 127 129 87 306 286 290 286 282 276 281 281 287 293 294 291 282 284 285 292
212 181 180 179 209 157 198 209 226 193 164 199 181 191 201 214 178 176 155 179 169 239 189 175 231 217 198 208 221 215 231 227 225 215 195 222 213 209 209 209 198 200 198 191 187 177 175 174 173 162 161 171 170 172 170 173 159 163 175 167 146 148 143 137 132 124 140 165 202 240 252 271 267 273 270 274 268 285 285 290 292 295 281 279 288 284
332 149 183 85 259 251 260 177 177 57 233 210 254 220 211 249 111 137 181 208 242 206 171 191 222 206 204 202 201 247 222 233 224 231 222 238 223 224 219 233 231 220 197 159 156 180 181 151 147 159 170 177 181 173 173 175 161 166 184 144 148 140 140 137 130 142 178 204 211 225 227 269 285 273 268 267 263 249 261 271 282 277 288 282 275 274
243 132 124 191 269 81 265 62 162 193 151 199 217 239 205 219 217 177 196 218 240 200 209 253 236 204 196 181 200 219 231 228 225 231 220 225 226 224 210 214 219 201 191 197 196 159 159 160 166 180 180 184 188 176 174 164 150 145 135 149 145 139 134 133 141 161 185 206 217 244 216 243 271 283 273 270 268 262 258 263 260 265 275 270 275 273
308 171 139 231 208 176 242 210 234 281 237 229 226 235 252 246 237 215 219 229 230 196 197 220 198 233 163 189 212 213 233 230 214 229 222 218 220 219 216 215 215 209 218 199 166 175 167 178 185 187 185 190 182 172 162 162 154 144 134 138 138 132 131 142 160 180 201 206 203 225 230 236 264 269 281 273 270 279 280 259 249 253 256 261 270 266
182 114 219 185 193 234 55 303 260 294 304 264 234 232 239 242 242 246 229 233 238 249 251 236 201 209 187 221 209 212 229 242 218 218 219 222 223 226 223 218 211 208 191 176 187 178 186 189 192 192 187 185 165 163 165 168 163 155 150 146 139 140 145 162 179 182 184 197 184 233 233 230 244 253 259 276 264 256 250 273 278 263 265 258 250 238
87 227 195 91 231 192 154 219 186 243 265 270 242 219 219 226 223 239 252 243 237 238 245 244 247 228 221 228 215 202 217 238 232 211 225 228 223 224 226 225 215 201 197 194 170 191 194 193 189 182 183 172 162 166 168 168 165 164 154 147 147 148 155 166 168 166 198 191 196 226 226 243 246 248 259 263 282 292 286 264 282 281 273 274 280 276
185 217 148 203 211 210 205 197 198 204 235 244 254 233 197 212 203 220 235 236 239 232 230 228 250 251 234 240 216 201 219 227 236 208 220 239 238 228 222 211 199 200 199 174 165 189 196 192 179 168 171 170 165 168 168 165 166 165 164 154 154 157 166 160 162 175 194 192 215 220 222 227 249 259 253 265 282 286 299 311 303 302 290 283 283 290